When you browse on this site, cookies collect data to enhance your experience and personalize the content and advertising you see.
Visit our Privacy Policy to learn more. By continuing to use the site, you agree to this use of cookies and data.
  • In Sweden
  • List of Countries
  • For 7 days
  • Water Temperature
  • Satellite Maps
  • Weather Map
  • Weather Widgets
  • user-avatar
    Login

    Hourly Weather Put ilicha

    Today, 22 April, Monday

    Time Temperature Precipitation Wind Pressure Humidity
    00:00 +4°C° 0 mm 1 mps 755 mmHg 62%
    01:00 +4°C° 0 mm 1 mps 755 mmHg 63%
    02:00 +3°C° 0 mm 1 mps 755 mmHg 65%
    03:00 +3°C° 0 mm 1 mps 755 mmHg 66%
    04:00 +3°C° 0 mm 1 mps 755 mmHg 67%
    05:00 +2°C° 0 mm 1 mps 755 mmHg 69%
    06:00 +4°C° 0 mm 1 mps 755 mmHg 63%
    07:00 +5°C° 0 mm 1 mps 756 mmHg 57%
    08:00 +7°C° 0 mm 1 mps 756 mmHg 50%
    09:00 +8°C° 0 mm 1 mps 756 mmHg 46%
    10:00 +9°C° 0 mm 1 mps 756 mmHg 42%
    11:00 +10°C° 0 mm 1 mps 756 mmHg 38%
    12:00 +10°C° 0 mm 1 mps 756 mmHg 38%
    13:00 +10°C° 0 mm 1 mps 756 mmHg 37%
    14:00 +11°C° 0 mm 1 mps 756 mmHg 36%
    15:00 +10°C° 0 mm 0 mps 756 mmHg 35%
    16:00 +10°C° 0 mm 0 mps 756 mmHg 35%
    17:00 +10°C° 0 mm 0 mps 755 mmHg 35%
    18:00 +9°C° 0 mm 0 mps 755 mmHg 38%
    19:00 +8°C° 0 mm 0 mps 755 mmHg 41%
    20:00 +9°C° 0 mm 1 mps 756 mmHg 44%
    21:00 +7°C° 0 mm 0 mps 755 mmHg 45%
    22:00 +7°C° 0 mm 0 mps 755 mmHg 46%
    23:00 +6°C° 0 mm 0 mps 755 mmHg 47%

    Tomorrow, 23 April, Tuesday

    Time Temperature Precipitation Wind Pressure Humidity
    00:00 +6°C° 0 mm 0 mps 755 mmHg 49%
    01:00 +5°C° 0 mm 0 mps 755 mmHg 50%
    02:00 +4°C° 0 mm 0 mps 754 mmHg 51%
    03:00 +4°C° 0 mm 0 mps 754 mmHg 52%
    04:00 +4°C° 0 mm 0 mps 754 mmHg 53%
    05:00 +3°C° 0 mm 0 mps 754 mmHg 54%
    06:00 +6°C° 0 mm 1 mps 754 mmHg 49%
    07:00 +8°C° 0 mm 1 mps 754 mmHg 44%
    08:00 +10°C° 0 mm 1 mps 754 mmHg 39%
    09:00 +9°C° 0 mm 2 mps 754 mmHg 37%
    10:00 +10°C° 0 mm 2 mps 753 mmHg 34%
    11:00 +12°C° 0 mm 2 mps 753 mmHg 32%
    12:00 +12°C° 0 mm 3 mps 752 mmHg 32%
    13:00 +12°C° 0 mm 3 mps 752 mmHg 32%
    14:00 +13°C° 0 mm 3 mps 751 mmHg 32%
    15:00 +13°C° 0 mm 3 mps 751 mmHg 33%
    16:00 +14°C° 0 mm 2 mps 751 mmHg 34%
    17:00 +14°C° 0 mm 2 mps 750 mmHg 35%
    18:00 +13°C° 0.3 mm 2 mps 750 mmHg 42%
    19:00 +12°C° 0.3 mm 2 mps 750 mmHg 50%
    20:00 +10°C° 0.3 mm 2 mps 750 mmHg 58%
    21:00 +9°C° 0.1 mm 2 mps 750 mmHg 62%
    22:00 +8°C° 0.1 mm 2 mps 750 mmHg 66%
    23:00 +7°C° 0.1 mm 2 mps 750 mmHg 70%

    Day after tomorrow, 24 April, Wednesday

    Time Temperature Precipitation Wind Pressure Humidity
    00:00 +7°C° 0 mm 2 mps 750 mmHg 72%
    01:00 +6°C° 0 mm 2 mps 750 mmHg 75%
    02:00 +6°C° 0 mm 2 mps 750 mmHg 78%
    03:00 +5°C° 0 mm 2 mps 750 mmHg 78%
    04:00 +5°C° 0 mm 2 mps 750 mmHg 78%
    05:00 +4°C° 0 mm 3 mps 750 mmHg 78%
    06:00 +7°C° 0 mm 3 mps 750 mmHg 68%
    07:00 +9°C° 0 mm 3 mps 750 mmHg 59%
    08:00 +11°C° 0 mm 3 mps 750 mmHg 49%
    09:00 +12°C° 0 mm 4 mps 750 mmHg 45%
    10:00 +13°C° 0 mm 4 mps 750 mmHg 41%
    11:00 +15°C° 0 mm 4 mps 750 mmHg 38%
    12:00 +15°C° 0 mm 4 mps 749 mmHg 37%
    13:00 +17°C° 0 mm 4 mps 749 mmHg 36%
    14:00 +16°C° 0 mm 5 mps 749 mmHg 35%
    15:00 +17°C° 0 mm 4 mps 748 mmHg 35%
    16:00 +17°C° 0 mm 4 mps 748 mmHg 35%
    17:00 +17°C° 0 mm 4 mps 748 mmHg 35%
    18:00 +14°C° 0 mm 4 mps 748 mmHg 39%
    19:00 +13°C° 0 mm 3 mps 748 mmHg 42%
    20:00 +13°C° 0 mm 2 mps 748 mmHg 45%
    21:00 +13°C° 0 mm 2 mps 747 mmHg 46%
    22:00 +12°C° 0 mm 2 mps 747 mmHg 47%
    23:00 +11°C° 0 mm 3 mps 747 mmHg 48%

    25 April, Thursday

    Time Temperature Precipitation Wind Pressure Humidity
    00:00 +10°C° 0 mm 3 mps 747 mmHg 48%
    01:00 +10°C° 0 mm 3 mps 746 mmHg 49%
    02:00 +9°C° 0 mm 3 mps 746 mmHg 49%
    03:00 +10°C° 0 mm 3 mps 746 mmHg 49%
    04:00 +10°C° 0 mm 3 mps 745 mmHg 49%
    05:00 +10°C° 0 mm 3 mps 745 mmHg 48%
    06:00 +11°C° 0 mm 4 mps 745 mmHg 46%
    07:00 +12°C° 0 mm 5 mps 745 mmHg 43%
    08:00 +13°C° 0 mm 6 mps 745 mmHg 41%
    09:00 +14°C° 0 mm 7 mps 745 mmHg 40%
    10:00 +15°C° 0 mm 8 mps 745 mmHg 39%
    11:00 +16°C° 0 mm 9 mps 745 mmHg 38%
    12:00 +15°C° 0.1 mm 9 mps 744 mmHg 41%
    13:00 +15°C° 0.1 mm 8 mps 744 mmHg 43%
    14:00 +13°C° 0.1 mm 8 mps 744 mmHg 46%
    15:00 +13°C° 0 mm 8 mps 744 mmHg 44%
    16:00 +13°C° 0 mm 8 mps 745 mmHg 43%
    17:00 +13°C° 0 mm 8 mps 745 mmHg 41%
    18:00 +13°C° 0 mm 6 mps 746 mmHg 45%
    19:00 +12°C° 0 mm 5 mps 746 mmHg 48%
    20:00 +11°C° 0 mm 3 mps 747 mmHg 51%
    21:00 +10°C° 0 mm 3 mps 747 mmHg 53%
    22:00 +9°C° 0 mm 2 mps 747 mmHg 56%
    23:00 +9°C° 0 mm 2 mps 747 mmHg 58%

    26 April, Friday

    Time Temperature Precipitation Wind Pressure Humidity
    00:00 +9°C° 0.1 mm 3 mps 747 mmHg 63%
    01:00 +8°C° 0.1 mm 4 mps 746 mmHg 68%
    02:00 +8°C° 0.1 mm 4 mps 746 mmHg 72%
    03:00 +8°C° 0.1 mm 5 mps 746 mmHg 70%
    04:00 +8°C° 0.1 mm 6 mps 745 mmHg 68%
    05:00 +8°C° 0.1 mm 7 mps 745 mmHg 66%
    06:00 +9°C° 0 mm 8 mps 745 mmHg 62%
    07:00 +10°C° 0 mm 9 mps 745 mmHg 58%
    08:00 +11°C° 0 mm 10 mps 744 mmHg 54%
    09:00 +11°C° 0 mm 10 mps 745 mmHg 53%
    10:00 +11°C° 0 mm 11 mps 745 mmHg 52%
    11:00 +12°C° 0 mm 12 mps 745 mmHg 50%
    12:00 +11°C° 0.2 mm 10 mps 745 mmHg 55%
    13:00 +10°C° 0.2 mm 9 mps 745 mmHg 60%
    14:00 +9°C° 0.2 mm 8 mps 746 mmHg 64%
    15:00 +9°C° 0 mm 7 mps 746 mmHg 63%
    16:00 +8°C° 0 mm 6 mps 746 mmHg 62%
    17:00 +8°C° 0 mm 4 mps 746 mmHg 61%
    18:00 +7°C° 0.2 mm 5 mps 747 mmHg 63%
    19:00 +6°C° 0.2 mm 5 mps 747 mmHg 66%
    20:00 +5°C° 0.2 mm 5 mps 747 mmHg 69%
    21:00 +3°C° 0.5 mm 5 mps 748 mmHg 70%
    22:00 +3°C° 0.5 mm 5 mps 748 mmHg 72%
    23:00 +2°C° 0.5 mm 5 mps 748 mmHg 73%

    27 April, Saturday

    Time Temperature Precipitation Wind Pressure Humidity
    00:00 +1°C° 0.1 mm 4 mps 748 mmHg 74%
    01:00 +1°C° 0.1 mm 4 mps 749 mmHg 76%
    02:00 +1°C° 0.1 mm 3 mps 749 mmHg 77%
    03:00 +1°C° 0 mm 3 mps 750 mmHg 79%
    04:00 0°C° 0 mm 3 mps 751 mmHg 81%
    05:00 0°C° 0 mm 3 mps 751 mmHg 83%
    06:00 +1°C° 0 mm 3 mps 752 mmHg 76%
    07:00 +2°C° 0 mm 2 mps 752 mmHg 68%
    08:00 +3°C° 0 mm 2 mps 752 mmHg 61%
    09:00 +6°C° 0 mm 1 mps 753 mmHg 54%
    10:00 +7°C° 0 mm 1 mps 753 mmHg 47%
    11:00 +7°C° 0 mm 0 mps 753 mmHg 39%
    12:00 +8°C° 0 mm 1 mps 753 mmHg 36%
    13:00 +9°C° 0 mm 1 mps 752 mmHg 32%
    14:00 +10°C° 0 mm 1 mps 752 mmHg 29%
    15:00 +11°C° 0 mm 1 mps 752 mmHg 29%
    16:00 +10°C° 0 mm 2 mps 752 mmHg 28%
    17:00 +12°C° 0 mm 2 mps 752 mmHg 28%
    18:00 +10°C° 0 mm 3 mps 752 mmHg 32%
    19:00 +9°C° 0 mm 3 mps 753 mmHg 37%
    20:00 +9°C° 0 mm 3 mps 753 mmHg 41%
    21:00 +7°C° 0 mm 4 mps 753 mmHg 45%
    22:00 +7°C° 0 mm 4 mps 753 mmHg 49%
    23:00 +7°C° 0 mm 5 mps 753 mmHg 53%
    Show more